Fort Stockton, TX

8:00 AM CST on January 21, 2018 (GMT -0600)
Fort Stockton-Pecos County

Weather History for KFST - May, 2013

Change the Weather History Date:

Friday, May 10, 2013

  Actual Average Record
Temperature  
Mean Temperature 64 °F -  
Max Temperature 77 °F 88 °F 102 °F (2000)
Min Temperature 54 °F 59 °F 48 °F (1997)
Degree Days  
Heating Degree Days 1    
Growing Degree Days 14 (Base 50)    
Moisture  
Dew Point 47 °F    
Average Humidity 54    
Maximum Humidity 94    
Minimum Humidity 28    
Precipitation  
Precipitation 0.11 in - - ()
Sea Level Pressure  
Sea Level Pressure 29.99 in    
Wind  
Wind Speed 14 mph (NNE)    
Max Wind Speed 26 mph    
Max Gust Speed 43 mph    
Visibility 10 miles    
Events Rain , Thunderstorm    
Averages and records for this station are not official NWS values.
T = Trace of Precipitation, MM = Missing Value Source: NWS Daily Summary

Daily Weather History Graph

Daily Weather History Graph

Search for Another Location

Airport or City:

Trip Planner

Search our weather history database for the weather conditions in past years. The results will help you decide how hot, cold, wet, or windy it might be!

Date:

Astronomy

May. 10, 2013 Rise Set
Actual Time 6:59 AM CDT 8:36 PM CDT
Civil Twilight 6:33 AM CDT 9:03 PM CDT
Nautical Twilight 6:02 AM CDT 9:34 PM CDT
Astronomical Twilight 5:29 AM CDT 10:07 PM CDT
Moon 7:26 AM CDT (5/10) 9:26 PM CDT (5/10)
Length of Visible Light 14h 29m
Length of Day
13h 37m
New Moon, 0% of the Moon is Illuminated
May 10
New Moon
May 17
First Quarter
May 24
Full
May 31
Last Quarter
Jun 8
New

Hourly Weather History & Observations

Time (CDT) Temp. Dew Point Humidity Pressure Visibility Wind Dir Wind Speed Gust Speed Precip Events Conditions
12:26 AM 73.4 °F 39.2 °F 29% 29.99 in 7.0 mi SSW 25.3 mph 42.6 mph 0.00 in Rain Light Rain
1:53 AM 69.1 °F 46.9 °F 45% 29.80 in 10.0 mi East 3.5 mph - 0.00 in Rain Light Rain
2:15 AM 69.8 °F 42.8 °F 38% 29.94 in 10.0 mi East 6.9 mph - 0.00 in Thunderstorm Partly Cloudy
2:31 AM 69.8 °F 41.0 °F 35% 29.94 in 10.0 mi East 5.8 mph - 0.00 in   Clear
3:53 AM 71.1 °F 36.0 °F 28% 29.79 in 10.0 mi SE 10.4 mph - N/A   Overcast
4:53 AM 69.1 °F 36.0 °F 30% 29.81 in 10.0 mi SSW 6.9 mph - N/A   Scattered Clouds
5:53 AM 66.9 °F 35.1 °F 31% 29.81 in 10.0 mi North 10.4 mph - N/A   Clear
7:53 AM 62.1 °F 50.0 °F 65% 29.91 in 10.0 mi North 9.2 mph - N/A   Clear
8:53 AM 64.0 °F 52.0 °F 65% 29.94 in 10.0 mi NNE 5.8 mph - N/A   Clear
9:53 AM 66.9 °F 51.1 °F 57% 29.95 in 10.0 mi North 11.5 mph - N/A   Clear
10:31 AM 68.0 °F 51.8 °F 56% 30.09 in 10.0 mi North 11.5 mph 24.2 mph N/A   Mostly Cloudy
10:46 AM 69.8 °F 51.8 °F 53% 30.09 in 10.0 mi NW 13.8 mph - N/A   Mostly Cloudy
10:53 AM 68.0 °F 51.1 °F 55% 29.97 in 10.0 mi NW 13.8 mph 18.4 mph N/A   Mostly Cloudy
12:53 PM 71.1 °F 50.0 °F 47% 29.97 in 10.0 mi NNW 13.8 mph - N/A   Overcast
1:53 PM 73.9 °F 51.1 °F 45% 29.95 in 10.0 mi North 13.8 mph 19.6 mph N/A   Overcast
2:53 PM 73.9 °F 48.0 °F 40% 29.94 in 10.0 mi North 18.4 mph 29.9 mph N/A   Mostly Cloudy
3:36 PM 73.4 °F 46.4 °F 38% 30.05 in 10.0 mi NNE 18.4 mph 24.2 mph N/A Thunderstorm Partly Cloudy
3:51 PM 73.4 °F 46.4 °F 38% 30.05 in 10.0 mi North 15.0 mph 23.0 mph N/A   Scattered Clouds
3:53 PM 73.9 °F 46.0 °F 37% 29.93 in 10.0 mi North 15.0 mph 24.2 mph N/A   Scattered Clouds
4:53 PM 73.0 °F 44.1 °F 35% 29.93 in 10.0 mi NE 17.3 mph 24.2 mph N/A   Mostly Cloudy
5:39 PM 71.6 °F 42.8 °F 35% 30.04 in 10.0 mi NNE 19.6 mph 26.5 mph N/A Thunderstorm Overcast
5:53 PM 72.0 °F 43.0 °F 35% 29.94 in 10.0 mi North 15.0 mph - N/A Thunderstorm Thunderstorm
6:28 PM 60.8 °F 51.8 °F 72% 30.09 in 10.0 mi SE 26.5 mph 34.5 mph 0.00 in Rain Light Rain
6:41 PM 59.0 °F 50.0 °F 72% 30.07 in 10.0 mi East 20.7 mph 29.9 mph 0.00 in Rain , Thunderstorm Light Rain
6:53 PM 60.1 °F 48.9 °F 67% 29.98 in 10.0 mi East 18.4 mph 28.8 mph 0.00 in Thunderstorm Mostly Cloudy
7:09 PM 60.8 °F 48.2 °F 63% 30.07 in 10.0 mi East 13.8 mph 24.2 mph N/A   Scattered Clouds
7:53 PM 62.1 °F 50.0 °F 65% 29.99 in 10.0 mi NE 10.4 mph - N/A   Mostly Cloudy
8:45 PM 62.6 °F 50.0 °F 63% 30.17 in 10.0 mi WSW 8.1 mph - 0.00 in Rain , Thunderstorm Light Rain
8:53 PM 60.1 °F 53.1 °F 78% 30.10 in 10.0 mi West 24.2 mph 31.1 mph 0.00 in Rain , Thunderstorm Light Rain
9:00 PM 55.4 °F 53.6 °F 94% 30.20 in 5.0 mi West 25.3 mph 34.5 mph 0.03 in Rain Rain
9:53 PM 55.9 °F 52.0 °F 87% 30.10 in 10.0 mi NW 9.2 mph - 0.11 in   Partly Cloudy
10:53 PM 55.9 °F 52.0 °F 87% 30.04 in 10.0 mi South 9.2 mph - N/A   Clear
11:53 PM 54.0 °F 51.1 °F 90% 30.11 in 10.0 mi WNW 11.5 mph 17.3 mph N/A   Clear